EW4388 Weather Reports


time (UTC)temp
F
wind
direction
speed
knots
gust
knots
rain 1hr
in
rain 24hr
in
rain mn
in
humidity
%
barometer
mb
20260906051532 76 221 0.0 0.9 0.00 0.00 0.00 46 1018.4
20260906050037 76 221 0.0 3.5 0.00 0.00 0.00 46 1018.2
20260906044535 75 221 1.7 3.5 0.00 0.00 0.00 47 1018.0
20260906043027 75 221 0.0 2.6 0.00 0.00 0.00 47 1018.0
20260906041531 75 221 0.0 1.7 0.00 0.00 0.00 48 1017.9
20260906040028 75 221 0.0 0.9 0.00 0.00 0.00 48 1017.8
20260906034527 75 221 0.0 2.6 0.00 0.00 0.00 48 1017.7
20260906033036 75 221 0.0 2.6 0.00 0.00 0.00 49 1017.6
20260906031526 75 221 0.0 1.7 0.00 0.00 0.00 50 1017.6
20260906030021 75 221 0.0 1.7 0.00 0.00 0.00 50 1017.6
20260906024521 75 221 0.0 0.0 0.00 0.00 0.00 52 1017.6
20260906023024 75 221 0.0 0.0 0.00 0.00 0.00 53 1017.5
20260906021518 75 221 0.0 0.0 0.00 0.00 0.00 52 1017.5
20260906020015 76 221 0.0 1.7 0.00 0.00 0.00 51 1017.3
20260906014513 76 221 0.0 0.9 0.00 0.00 0.00 51 1017.5
20260906013013 77 221 0.0 1.7 0.00 0.00 0.00 49 1017.5
20260906011509 77 221 1.7 2.6 0.00 0.00 0.00 48 1017.5
20260906010009 77 221 0.9 2.6 0.00 0.00 0.00 48 1017.5
20260906004509 77 221 1.7 2.6 0.00 0.00 0.00 48 1017.5
20260906003008 77 221 0.0 1.7 0.00 0.00 0.00 47 1017.4
20260906001505 77 221 0.0 1.7 0.00 0.00 0.00 47 1017.4
20260906000005 77 221 0.0 0.9 0.00 0.00 0.00 45 1017.5
20260905234504 79 221 0.0 2.6 0.00 0.00 0.00 44 1017.6
20260905233101 79 221 0.9 2.6 0.00 0.00 0.00 43 1017.6
20260905231600 79 221 0.0 3.5 0.00 0.00 0.00 42 1017.6
20260905230057 79 221 0.0 1.7 0.00 0.00 0.00 40 1017.7
20260905224605 79 205 0.9 3.5 0.00 0.00 0.00 39 1017.7
20260905223055 79 239 0.9 5.2 0.00 0.00 0.00 38 1017.6
20260905221602 80 229 0.0 3.5 0.00 0.00 0.00 38 1017.6
20260905220104 80 237 0.0 2.6 0.00 0.00 0.00 38 1017.5
20260905214551 80 229 0.0 2.6 0.00 0.00 0.00 38 1017.4
20260905213051 80 234 0.0 1.7 0.00 0.00 0.00 39 1017.4
20260905211603 79 233 0.0 0.0 0.00 0.00 0.00 41 1017.5
20260905210055 80 233 0.0 0.9 0.00 0.00 0.00 40 1017.5
20260905204556 81 233 0.0 1.7 0.00 0.00 0.00 38 1017.5
20260905203111 82 248 1.7 5.2 0.00 0.00 0.00 37 1017.4
20260905201547 81 233 0.0 0.9 0.00 0.00 0.00 40 1017.4
20260905200054 82 233 0.0 3.5 0.00 0.00 0.00 39 1017.4
20260905194546 83 198 1.7 5.2 0.00 0.00 0.00 39 1017.4
20260905193045 84 134 0.0 2.6 0.00 0.00 0.00 40 1017.4
20260905191544 85 135 0.9 4.3 0.00 0.00 0.00 38 1017.4
20260905190044 85 142 0.9 2.6 0.00 0.00 0.00 38 1017.3
20260905184543 85 109 0.0 0.9 0.00 0.00 0.00 38 1017.3
20260905183043 85 109 0.0 2.6 0.00 0.00 0.00 38 1017.2
20260905181559 85 108 0.0 0.0 0.00 0.00 0.00 39 1017.0
20260905180042 86 108 0.0 1.7 0.00 0.00 0.00 37 1016.8
20260905174549 86 108 0.0 1.7 0.00 0.00 0.00 36 1016.6
20260905173041 87 108 0.0 0.0 0.00 0.00 0.00 37 1016.4
20260905171544 88 108 0.0 3.5 0.00 0.00 0.00 37 1016.4
20260905170041 89 136 0.0 2.6 0.00 0.00 0.00 37 1016.3
20260905164539 90 136 0.0 0.9 0.00 0.00 0.00 34 1016.3
20260905163039 91 117 0.0 2.6 0.00 0.00 0.00 31 1016.2
20260905161538 92 142 0.9 3.5 0.00 0.00 0.00 31 1016.3
20260905160106 92 9 0.9 4.3 0.00 0.00 0.00 29 1016.2
20260905154539 93 348 0.0 7.0 0.00 0.00 0.00 28 1016.3
20260905153035 94 30 0.0 4.3 0.00 0.00 0.00 27 1016.3
20260905151536 94 26 1.7 8.7 0.00 0.00 0.00 28 1016.3
20260905150034 94 20 0.9 7.8 0.00 0.00 0.00 28 1016.5
20260905144533 94 46 1.7 5.2 0.00 0.00 0.00 29 1016.5
20260905143032 94 43 0.9 8.7 0.00 0.00 0.00 29 1016.6
20260905141533 94 40 4.3 11.3 0.00 0.00 0.00 28 1016.6
20260905140030 93 36 1.7 8.7 0.00 0.00 0.00 29 1016.7
20260905134530 92 39 5.2 10.4 0.00 0.00 0.00 32 1016.7
20260905133029 93 38 4.3 12.2 0.00 0.00 0.00 34 1016.6
20260905131527 94 54 5.2 11.3 0.00 0.00 0.00 32 1016.7
20260905130026 94 49 1.7 7.8 0.00 0.00 0.00 31 1016.8
20260905124536 94 39 6.1 9.6 0.00 0.00 0.00 29 1017.0
20260905123022 95 41 5.2 10.4 0.00 0.00 0.00 26 1017.2
20260905121521 95 37 4.3 8.7 0.00 0.00 0.00 26 1017.2
20260905120019 94 26 5.2 11.3 0.00 0.00 0.00 28 1017.4
20260905114518 94 45 5.2 10.4 0.00 0.00 0.00 30 1017.6
20260905113018 95 29 5.2 9.6 0.00 0.00 0.00 29 1017.6
20260905111516 95 51 4.3 10.4 0.00 0.00 0.00 29 1017.6
20260905110015 95 39 1.7 10.4 0.00 0.00 0.00 29 1017.7
20260905104514 95 39 3.5 10.4 0.00 0.00 0.00 27 1017.7
20260905103019 96 26 2.6 8.7 0.00 0.00 0.00 26 1017.7
20260905101512 97 31 2.6 7.0 0.00 0.00 0.00 25 1017.9
20260905100009 97 26 0.0 3.5 0.00 0.00 0.00 25 1018.0
20260905094510 97 136 0.9 5.2 0.00 0.00 0.00 23 1018.2
20260905093105 96 41 0.9 2.6 0.00 0.00 0.00 24 1018.2
20260905091623 94 41 0.9 4.3 0.00 0.00 0.00 25 1018.3
20260905090001 95 5 1.7 3.5 0.00 0.00 0.00 24 1018.4
20260905084608 94 49 0.0 4.3 0.00 0.00 0.00 26 1018.5
20260905083058 94 203 0.9 2.6 0.00 0.00 0.00 26 1018.5
20260905081553 93 231 0.9 3.5 0.00 0.00 0.00 26 1018.5
20260905080054 92 230 0.0 1.7 0.00 0.00 0.00 29 1018.4
20260905074547 90 227 0.0 1.7 0.00 0.00 0.00 31 1018.4
20260905073051 89 227 0.9 2.6 0.00 0.00 0.00 31 1018.4
20260905071541 88 227 0.0 0.9 0.00 0.00 0.00 35 1018.4
20260905070037 85 227 0.0 1.7 0.00 0.00 0.00 38 1018.3
20260905064533 83 227 0.0 2.6 0.00 0.00 0.00 40 1018.2
20260905063028 81 227 0.0 2.6 0.00 0.00 0.00 41 1018.2
20260905061524 78 227 0.9 4.3 0.00 0.00 0.00 44 1018.3
20260905060020 75 226 0.9 4.3 0.00 0.00 0.00 46 1018.2
20260905054519 73 226 0.9 3.5 0.00 0.00 0.00 49 1018.3
20260905053015 72 226 0.0 2.6 0.00 0.00 0.00 50 1018.3